• In India
  • List of Countries
  • For 7 days
  • Water Temperature
  • Satellite Maps
  • Weather Map
  • Weather Widgets
  • user-avatar
    Login

    Hourly Weather Majorat

    Today, 23 September, Sunday

    Time Temperature Precipitation Wind Pressure Humidity
    00:00 +9°C° 0 mm 3 mps 744 mmHg 75%
    01:00 +9°C° 0 mm 2 mps 744 mmHg 79%
    02:00 +9°C° 0 mm 2 mps 743 mmHg 78%
    03:00 +9°C° 0 mm 2 mps 743 mmHg 77%
    04:00 +9°C° 0 mm 2 mps 743 mmHg 76%
    05:00 +10°C° 0 mm 3 mps 743 mmHg 74%
    06:00 +10°C° 0 mm 3 mps 743 mmHg 72%
    07:00 +11°C° 0 mm 4 mps 742 mmHg 68%
    08:00 +13°C° 0 mm 4 mps 742 mmHg 61%
    09:00 +15°C° 0 mm 5 mps 742 mmHg 55%
    10:00 +16°C° 0 mm 6 mps 742 mmHg 48%
    11:00 +17°C° 0 mm 6 mps 742 mmHg 48%
    12:00 +17°C° 0 mm 5 mps 742 mmHg 47%
    13:00 +16°C° 0 mm 5 mps 742 mmHg 48%
    14:00 +16°C° 0 mm 5 mps 741 mmHg 49%
    15:00 +17°C° 0 mm 4 mps 740 mmHg 50%
    16:00 +17°C° 0 mm 3 mps 740 mmHg 51%
    17:00 +16°C° 0.1 mm 3 mps 739 mmHg 55%
    18:00 +15°C° 0.1 mm 4 mps 738 mmHg 58%
    19:00 +14°C° 0.1 mm 4 mps 737 mmHg 62%
    20:00 +14°C° 0.6 mm 6 mps 735 mmHg 62%
    21:00 +14°C° 0.6 mm 7 mps 734 mmHg 63%
    22:00 +13°C° 0.6 mm 9 mps 732 mmHg 63%
    23:00 +14°C° 1.7 mm 7 mps 731 mmHg 70%

    Tomorrow, 24 September, Monday

    Time Temperature Precipitation Wind Pressure Humidity
    00:00 +14°C° 1.7 mm 6 mps 730 mmHg 78%
    01:00 +13°C° 1.7 mm 5 mps 729 mmHg 85%
    02:00 +12°C° 1.5 mm 7 mps 730 mmHg 85%
    03:00 +12°C° 1.5 mm 9 mps 731 mmHg 84%
    04:00 +12°C° 1.5 mm 11 mps 731 mmHg 84%
    05:00 +11°C° 0.1 mm 10 mps 733 mmHg 82%
    06:00 +8°C° 0.1 mm 9 mps 735 mmHg 81%
    07:00 +7°C° 0.1 mm 9 mps 736 mmHg 79%
    08:00 +8°C° 0.1 mm 9 mps 737 mmHg 77%
    09:00 +8°C° 0.1 mm 9 mps 738 mmHg 74%
    10:00 +10°C° 0.1 mm 9 mps 739 mmHg 71%
    11:00 +10°C° 0.3 mm 9 mps 740 mmHg 70%
    12:00 +9°C° 0.3 mm 10 mps 740 mmHg 69%
    13:00 +9°C° 0.3 mm 10 mps 741 mmHg 67%
    14:00 +10°C° 0.1 mm 9 mps 741 mmHg 65%
    15:00 +10°C° 0.1 mm 9 mps 742 mmHg 63%
    16:00 +10°C° 0.1 mm 9 mps 742 mmHg 61%
    17:00 +9°C° 0 mm 8 mps 742 mmHg 63%
    18:00 +8°C° 0 mm 7 mps 742 mmHg 66%
    19:00 +7°C° 0 mm 6 mps 743 mmHg 68%
    20:00 +7°C° 0.1 mm 6 mps 743 mmHg 71%
    21:00 +7°C° 0.1 mm 6 mps 744 mmHg 74%
    22:00 +7°C° 0.1 mm 6 mps 744 mmHg 77%
    23:00 +5°C° 0.2 mm 6 mps 745 mmHg 78%

    Day after tomorrow, 25 September, Tuesday

    Time Temperature Precipitation Wind Pressure Humidity
    00:00 +5°C° 0.2 mm 6 mps 745 mmHg 80%
    01:00 +5°C° 0.2 mm 6 mps 746 mmHg 82%
    02:00 +4°C° 0 mm 6 mps 747 mmHg 82%
    03:00 +4°C° 0 mm 6 mps 747 mmHg 83%
    04:00 +3°C° 0 mm 5 mps 748 mmHg 84%
    05:00 +5°C° 0 mm 5 mps 749 mmHg 81%
    06:00 +4°C° 0 mm 6 mps 749 mmHg 79%
    07:00 +4°C° 0 mm 6 mps 750 mmHg 76%
    08:00 +7°C° 0 mm 6 mps 750 mmHg 68%
    09:00 +8°C° 0 mm 7 mps 751 mmHg 60%
    10:00 +9°C° 0 mm 7 mps 751 mmHg 52%
    11:00 +10°C° 0.1 mm 7 mps 752 mmHg 51%
    12:00 +10°C° 0.1 mm 7 mps 752 mmHg 50%
    13:00 +10°C° 0.1 mm 8 mps 752 mmHg 49%
    14:00 +10°C° 0.1 mm 7 mps 752 mmHg 50%
    15:00 +10°C° 0.1 mm 7 mps 753 mmHg 51%
    16:00 +9°C° 0.1 mm 6 mps 753 mmHg 51%
    17:00 +8°C° 0 mm 5 mps 753 mmHg 54%
    18:00 +7°C° 0 mm 4 mps 754 mmHg 57%
    19:00 +7°C° 0 mm 3 mps 754 mmHg 60%
    20:00 +7°C° 0 mm 3 mps 755 mmHg 63%
    21:00 +5°C° 0 mm 3 mps 755 mmHg 66%
    22:00 +4°C° 0 mm 3 mps 756 mmHg 70%
    23:00 +4°C° 0 mm 3 mps 756 mmHg 72%

    26 September, Wednesday

    Time Temperature Precipitation Wind Pressure Humidity
    00:00 +4°C° 0 mm 2 mps 756 mmHg 75%
    01:00 +4°C° 0 mm 2 mps 756 mmHg 77%
    02:00 +4°C° 0 mm 2 mps 756 mmHg 78%
    03:00 +3°C° 0 mm 2 mps 757 mmHg 79%
    04:00 +3°C° 0 mm 2 mps 757 mmHg 79%
    05:00 +4°C° 0 mm 2 mps 757 mmHg 77%
    06:00 +4°C° 0 mm 2 mps 757 mmHg 74%
    07:00 +5°C° 0 mm 2 mps 757 mmHg 71%
    08:00 +7°C° 0 mm 2 mps 757 mmHg 63%
    09:00 +9°C° 0 mm 3 mps 756 mmHg 55%
    10:00 +11°C° 0 mm 3 mps 756 mmHg 47%
    11:00 +11°C° 0 mm 4 mps 756 mmHg 45%
    12:00 +12°C° 0 mm 4 mps 755 mmHg 44%
    13:00 +13°C° 0 mm 4 mps 754 mmHg 43%
    14:00 +13°C° 0 mm 4 mps 754 mmHg 45%
    15:00 +13°C° 0 mm 4 mps 753 mmHg 48%
    16:00 +13°C° 0 mm 3 mps 753 mmHg 50%
    17:00 +12°C° 0 mm 4 mps 752 mmHg 52%
    18:00 +11°C° 0 mm 4 mps 752 mmHg 54%
    19:00 +10°C° 0 mm 4 mps 752 mmHg 56%
    20:00 +10°C° 0 mm 4 mps 751 mmHg 55%
    21:00 +10°C° 0 mm 4 mps 751 mmHg 54%
    22:00 +10°C° 0 mm 5 mps 751 mmHg 53%
    23:00 +10°C° 0 mm 5 mps 751 mmHg 53%

    27 September, Thursday

    Time Temperature Precipitation Wind Pressure Humidity
    00:00 +10°C° 0 mm 5 mps 750 mmHg 53%
    01:00 +10°C° 0 mm 5 mps 750 mmHg 53%
    02:00 +10°C° 0 mm 6 mps 750 mmHg 51%
    03:00 +10°C° 0 mm 6 mps 749 mmHg 49%
    04:00 +10°C° 0 mm 6 mps 749 mmHg 47%
    05:00 +10°C° 0 mm 6 mps 749 mmHg 48%
    06:00 +10°C° 0 mm 6 mps 748 mmHg 49%
    07:00 +11°C° 0 mm 6 mps 748 mmHg 51%
    08:00 +13°C° 0 mm 6 mps 748 mmHg 51%
    09:00 +14°C° 0 mm 7 mps 748 mmHg 51%
    10:00 +15°C° 0 mm 7 mps 749 mmHg 51%
    11:00 +17°C° 0 mm 7 mps 748 mmHg 51%
    12:00 +18°C° 0 mm 7 mps 748 mmHg 52%
    13:00 +20°C° 0 mm 7 mps 748 mmHg 53%
    14:00 +20°C° 0 mm 6 mps 747 mmHg 56%
    15:00 +20°C° 0 mm 5 mps 747 mmHg 59%
    16:00 +20°C° 0 mm 4 mps 747 mmHg 61%
    17:00 +18°C° 0 mm 4 mps 747 mmHg 67%
    18:00 +17°C° 0 mm 3 mps 746 mmHg 72%
    19:00 +14°C° 0 mm 3 mps 746 mmHg 78%
    20:00 +14°C° 0 mm 3 mps 746 mmHg 78%
    21:00 +13°C° 0 mm 3 mps 746 mmHg 79%
    22:00 +13°C° 0 mm 3 mps 746 mmHg 79%
    23:00 +13°C° 0 mm 4 mps 745 mmHg 77%

    28 September, Friday

    Time Temperature Precipitation Wind Pressure Humidity
    00:00 +12°C° 0 mm 4 mps 745 mmHg 74%
    01:00 +12°C° 0 mm 4 mps 745 mmHg 72%
    02:00 +12°C° 0 mm 4 mps 744 mmHg 70%
    03:00 +12°C° 0 mm 4 mps 744 mmHg 69%
    04:00 +12°C° 0 mm 4 mps 744 mmHg 68%
    05:00 +12°C° 0 mm 4 mps 744 mmHg 67%
    06:00 +13°C° 0 mm 4 mps 744 mmHg 66%
    07:00 +13°C° 0 mm 4 mps 743 mmHg 65%
    08:00 +14°C° 0 mm 4 mps 744 mmHg 65%
    09:00 +14°C° 0 mm 4 mps 744 mmHg 65%
    10:00 +15°C° 0 mm 4 mps 744 mmHg 65%
    11:00 +15°C° 0.1 mm 4 mps 744 mmHg 68%
    12:00 +15°C° 0.1 mm 4 mps 745 mmHg 70%
    13:00 +16°C° 0.1 mm 3 mps 745 mmHg 73%
    14:00 +16°C° 0 mm 3 mps 745 mmHg 74%
    15:00 +14°C° 0 mm 3 mps 745 mmHg 76%
    16:00 +13°C° 0 mm 3 mps 745 mmHg 78%
    17:00 +13°C° 0 mm 3 mps 745 mmHg 77%
    18:00 +13°C° 0 mm 2 mps 746 mmHg 76%
    19:00 +13°C° 0 mm 2 mps 746 mmHg 75%
    20:00 +12°C° 0 mm 2 mps 747 mmHg 74%
    21:00 +12°C° 0 mm 2 mps 747 mmHg 74%
    22:00 +12°C° 0 mm 2 mps 747 mmHg 74%
    23:00 +10°C° 0 mm 2 mps 748 mmHg 74%
    Show more